| time (UTC) | temp F | wind direction | speed MPH | gust MPH | rain 1hr in | rain 24hr in | rain mn in | humidity % | barometer mb |
| 20260902192358 | 66 | 0 | 2.0 | 0.0 | 0.00 | 0.00 | 0.00 | 68 | |
| 20260902190239 | 66 | 0 | 1.0 | 0.0 | 0.00 | 0.00 | 0.00 | 68 | 1019.0 |
| 20260902183231 | 68 | 100 | 3.0 | 0.0 | 0.00 | 0.00 | 0.00 | 64 | 1019.0 |
| 20260902182155 | 70 | 70 | 5.0 | 0.0 | 0.00 | 0.00 | 0.00 | 56 | |
| 20260902180234 | 68 | 60 | 2.0 | 0.0 | 0.00 | 0.00 | 0.00 | 64 | 1019.0 |
| 20260902173230 | 72 | 0 | 2.0 | 0.0 | 0.00 | 0.00 | 0.00 | 53 | 1019.0 |
| 20260902172358 | 73 | 0 | 2.0 | 0.0 | 0.00 | 0.00 | 0.00 | 53 | |
| 20260902170232 | 72 | 10 | 3.0 | 0.0 | 0.00 | 0.00 | 0.00 | 53 | 1019.0 |
| 20260902163230 | 72 | 360 | 3.0 | 0.0 | 0.00 | 0.00 | 0.00 | 53 | 1019.0 |
| 20260902162559 | 75 | 0 | 5.0 | 0.0 | 0.00 | 0.00 | 0.00 | 44 | |
| 20260902160233 | 73 | 360 | 3.0 | 0.0 | 0.00 | 0.00 | 0.00 | 46 | 1019.0 |
| 20260902153230 | 75 | 240 | 9.0 | 0.0 | 0.00 | 0.00 | 0.00 | 41 | 1019.0 |
| 20260902152155 | 75 | 0 | 7.0 | 0.0 | 0.00 | 0.00 | 0.00 | 38 | |
| 20260902150235 | 75 | 250 | 6.0 | 0.0 | 0.00 | 0.00 | 0.00 | 38 | 1019.0 |
| 20260902143231 | 77 | 240 | 12.0 | 0.0 | 0.00 | 0.00 | 0.00 | 33 | 1019.0 |
| 20260902142358 | 77 | 240 | 12.0 | 0.0 | 0.00 | 0.00 | 0.00 | 36 | |
| 20260902140240 | 77 | 260 | 8.0 | 0.0 | 0.00 | 0.00 | 0.00 | 36 | 1019.0 |
| 20260902133230 | 77 | 250 | 12.0 | 0.0 | 0.00 | 0.00 | 0.00 | 33 | 1019.0 |
| 20260902132355 | 77 | 240 | 12.0 | 0.0 | 0.00 | 0.00 | 0.00 | 36 | |
| 20260902130233 | 79 | 240 | 13.0 | 0.0 | 0.00 | 0.00 | 0.00 | 34 | 1020.0 |
| 20260902123231 | 77 | 240 | 14.0 | 0.0 | 0.00 | 0.00 | 0.00 | 36 | 1020.0 |
| 20260902122156 | 77 | 230 | 14.0 | 0.0 | 0.00 | 0.00 | 0.00 | 38 | |
| 20260902120233 | 77 | 230 | 15.0 | 0.0 | 0.00 | 0.00 | 0.00 | 36 | 1020.0 |
| 20260902113230 | 77 | 240 | 14.0 | 0.0 | 0.00 | 0.00 | 0.00 | 38 | 1020.0 |
| 20260902112355 | 77 | 230 | 16.0 | 0.0 | 0.00 | 0.00 | 0.00 | 41 | |
| 20260902110240 | 75 | 230 | 14.0 | 0.0 | 0.00 | 0.00 | 0.00 | 41 | 1020.0 |
| 20260902103231 | 75 | 220 | 14.0 | 0.0 | 0.00 | 0.00 | 0.00 | 41 | 1021.0 |
| 20260902102457 | 73 | 210 | 14.0 | 0.0 | 0.00 | 0.00 | 0.00 | 46 | |
| 20260902100234 | 73 | 220 | 13.0 | 0.0 | 0.00 | 0.00 | 0.00 | 46 | 1021.0 |
| 20260902093231 | 73 | 220 | 13.0 | 0.0 | 0.00 | 0.00 | 0.00 | 46 | 1021.0 |
| 20260902092157 | 72 | 240 | 16.0 | 0.0 | 0.00 | 0.00 | 0.00 | 49 | |
| 20260902090233 | 72 | 230 | 14.0 | 0.0 | 0.00 | 0.00 | 0.00 | 49 | 1021.0 |
| 20260902083231 | 70 | 220 | 10.0 | 0.0 | 0.00 | 0.00 | 0.00 | 52 | 1021.0 |
| 20260902082357 | 66 | 0 | 5.0 | 0.0 | 0.00 | 0.00 | 0.00 | 63 | |
| 20260902080234 | 64 | 240 | 6.0 | 0.0 | 0.00 | 0.00 | 0.00 | 67 | 1021.0 |
| 20260902073231 | 63 | 240 | 6.0 | 0.0 | 0.00 | 0.00 | 0.00 | 72 | 1021.0 |
| 20260902072255 | 61 | 250 | 7.0 | 0.0 | 0.00 | 0.00 | 0.00 | 77 | |
| 20260902070239 | 59 | 250 | 6.0 | 0.0 | 0.00 | 0.00 | 0.00 | 82 | 1021.0 |
| 20260902063229 | 57 | 240 | 5.0 | 0.0 | 0.00 | 0.00 | 0.00 | 82 | 1021.0 |
| 20260902062155 | 55 | 250 | 7.0 | 0.0 | 0.00 | 0.00 | 0.00 | 87 | |
| 20260902060230 | 55 | 250 | 6.0 | 0.0 | 0.00 | 0.00 | 0.00 | 87 | 1021.0 |
| 20260902053224 | 55 | 230 | 6.0 | 0.0 | 0.00 | 0.00 | 0.00 | 82 | 1021.0 |
| 20260902052338 | 55 | 210 | 7.0 | 0.0 | 0.00 | 0.00 | 0.00 | 82 | |
| 20260902050226 | 54 | 210 | 7.0 | 0.0 | 0.00 | 0.00 | 0.00 | 87 | 1021.0 |
| 20260902043224 | 54 | 230 | 7.0 | 0.0 | 0.00 | 0.00 | 0.00 | 87 | 1021.0 |
| 20260902042458 | 52 | 230 | 5.0 | 0.0 | 0.00 | 0.00 | 0.00 | 93 | |
| 20260902040238 | 52 | 240 | 5.0 | 0.0 | 0.00 | 0.00 | 0.00 | 87 | 1021.0 |
| 20260902033224 | 54 | 230 | 8.0 | 0.0 | 0.00 | 0.00 | 0.00 | 87 | 1021.0 |
| 20260902032608 | 54 | 220 | 9.0 | 0.0 | 0.00 | 0.00 | 0.00 | 87 | |
| 20260902032155 | 54 | 220 | 9.0 | 0.0 | 0.00 | 0.00 | 0.00 | 87 | |
| 20260902030239 | 54 | 220 | 8.0 | 0.0 | 0.00 | 0.00 | 0.00 | 87 | 1021.0 |
| 20260902023223 | 54 | 220 | 6.0 | 0.0 | 0.00 | 0.00 | 0.00 | 87 | 1021.0 |
| 20260902022355 | 55 | 220 | 7.0 | 0.0 | 0.00 | 0.00 | 0.00 | 82 | |
| 20260902020233 | 54 | 220 | 7.0 | 0.0 | 0.00 | 0.00 | 0.00 | 87 | 1021.0 |
| 20260902013223 | 52 | 220 | 7.0 | 0.0 | 0.00 | 0.00 | 0.00 | 87 | 1021.0 |
| 20260902012355 | 54 | 220 | 7.0 | 0.0 | 0.00 | 0.00 | 0.00 | 87 | |
| 20260902010235 | 54 | 220 | 7.0 | 0.0 | 0.00 | 0.00 | 0.00 | 81 | 1021.0 |
| 20260902003224 | 54 | 0 | 2.0 | 0.0 | 0.00 | 0.00 | 0.00 | 81 | 1021.0 |
| 20260902002156 | 54 | 0 | 5.0 | 0.0 | 0.00 | 0.00 | 0.00 | 87 | |
| 20260902000241 | 54 | 230 | 5.0 | 0.0 | 0.00 | 0.00 | 0.00 | 87 | 1021.0 |
| 20260901233224 | 55 | 210 | 5.0 | 0.0 | 0.00 | 0.00 | 0.00 | 82 | 1021.0 |
| 20260901232339 | 54 | 220 | 5.0 | 0.0 | 0.00 | 0.00 | 0.00 | 87 | |
| 20260901230234 | 52 | 230 | 6.0 | 0.0 | 0.00 | 0.00 | 0.00 | 87 | 1021.0 |
| 20260901223224 | 57 | 220 | 6.0 | 0.0 | 0.00 | 0.00 | 0.00 | 71 | 1021.0 |
| 20260901222442 | 59 | 190 | 5.0 | 0.0 | 0.00 | 0.00 | 0.00 | 72 | |
| 20260901220236 | 59 | 190 | 3.0 | 0.0 | 0.00 | 0.00 | 0.00 | 72 | 1021.0 |
| 20260901213224 | 54 | 220 | 7.0 | 0.0 | 0.00 | 0.00 | 0.00 | 87 | 1021.0 |
| 20260901212155 | 57 | 230 | 7.0 | 0.0 | 0.00 | 0.00 | 0.00 | 76 | |
| 20260901210240 | 57 | 240 | 5.0 | 0.0 | 0.00 | 0.00 | 0.00 | 82 | 1021.0 |
| 20260901203224 | 61 | 0 | 2.0 | 0.0 | 0.00 | 0.00 | 0.00 | 67 | 1021.0 |
| 20260901202354 | 61 | 190 | 5.0 | 0.0 | 0.00 | 0.00 | 0.00 | 72 | |
| 20260901200233 | 63 | 190 | 3.0 | 0.0 | 0.00 | 0.00 | 0.00 | 67 | 1021.0 |
| 20260901193223 | 63 | 160 | 2.0 | 0.0 | 0.00 | 0.00 | 0.00 | 63 | 1021.0 |